HUBBLE
1 20580U 90037B 10133.13907466 .00000459 00000-0 22325-4 0 5642
2 20580 028.4674 108.6573 0003720 187.3225 172.7302 15.00970283899483
ISS
1 25544U 98067A 10134.04366898 .00022548 00000-0 15871-3 0 1474
2 25544 051.6469 045.8067 0009642 314.0466 220.6655 15.73972181658096
CO-58
1 28895U 05043F 10132.68395237 .00000114 00000-0 33269-4 0 5814
2 28895 098.0220 018.3284 0018710 040.2222 320.0356 14.59888192241809
FALCON
1 30776U 07006E 10133.68776137 .00000843 00000-0 63382-4 0 8269
2 30776 035.4340 253.7438 0001841 283.6586 076.3923 15.03652283174869
MAST
1 31126U 07012K 10132.63362061 .00000082 00000-0 29182-4 0 8633
2 31126 097.9395 176.4771 0094503 337.4000 022.3046 14.53583927162898
CAPE1
1 31130U 07012P 10132.58195457 .00000205 00000-0 57952-4 0 08852
2 31130 097.9442 173.9086 0101876 345.5314 014.2954 14.52174825162493
COMPASS
1 32787U 08021E 10133.66432633 .00000212 00000-0 33471-4 0 6702
2 32787 097.8961 198.8920 0016733 040.5377 319.7077 14.81859607110388
AAUSAT2
1 32788U 08021F 10132.72545899 -.00000007 00000-0 58603-5 0 06649
2 32788 097.8962 198.0857 0016436 045.1769 315.0755 14.81999552110259
DO-64
1 32789U 08021G 10132.80512928 .00000565 00000-0 77479-4 0 6791
2 32789 097.9035 198.5984 0016476 044.1121 316.1400 14.82127477110263
CO-66
1 32791U 08021J 10133.68126741 .00000505 00000-0 70766-4 0 6623
2 32791 097.8975 198.9282 0017049 039.1207 321.1274 14.81649527110347
RS-30
1 32953U 08025A 10133.76031698 .00000010 00000-0 00000 0 0 6880
2 32953 082.5026 051.0840 0018370 173.3378 186.7948 12.43005211 89465
TACSAT-3
1 35001U 09028A 10132.93678004 .00004813 00000-0 11679-3 0 03056
2 35001 040.4570 065.8111 0019727 101.4328 258.8705 15.41524656055192
PHARMSAT
1 35002U 09028B 10132.96765215 .00004460 00000-0 10645-3 0 02746
2 35002 040.4706 063.7550 0022979 106.0940 254.2407 15.42081883055215
HAWKSAT1
1 35003U 09028C 10132.87962265 .00009596 00000-0 20252-3 0 02910
2 35003 040.4627 060.0715 0020780 118.6164 241.6671 15.44899831055255
CP6
1 35004U 09028D 10132.89440630 .00011286 00000-0 23156-3 0 02858
2 35004 040.4678 059.3025 0019725 123.4708 236.7881 15.45628069055254
AEROCUB3
1 35005U 09028E 10132.92341626 .00032082 00000-0 56506-3 0 03109
2 35005 040.4745 058.0980 0016449 134.9228 225.2824 15.49572420055275
DRAGNSAT
1 35690U 09038B 10076.22711312 .05715194 12509-4 31481-3 0 3162
2 35690 051.6170 315.4586 0004999 310.9891 057.3269 16.42150010 36561
POLLUX
1 35693U 09038E 10087.99866888 .23496735 12787-4 17715-3 0 3529
2 35693 051.6099 254.5746 0006270 294.4866 097.5899 16.52338462 38395
CASTOR
1 35694U 09038F 10133.79239933 .00063345 12949-4 14542-3 0 3713
2 35694 051.6373 023.6464 0003780 097.4785 262.6653 15.97564634 45556
METEOR-M
1 35865U 09049A 10133.65216639 .00000176 00000-0 10000-3 0 2907
2 35865 098.7600 187.6922 0003357 098.2506 261.9018 14.21830099 33811
RS-38
1 35869U 09049E 10133.76808857 .00000177 00000-0 10000-3 0 2969
2 35869 098.7601 187.8375 0005419 099.9653 260.2095 14.21981425 33831
